Толе би

Казахстан     43°41′45″N   73°44′53″E
темп.,
°C
ветер,
м/с
пор.,
м/с
влажн.,
%
обл.,
%
осадки,
мм/ч
давл.,
гПа
погр.,
м
2 марта, вт
вт200:00+2ю45542 0.0 102135
03:00+2ю45550 0.0 101971
06:00+2ю57610 0.0 1019106
09:00+3ююз58566 0.0 1020113
12:00+10зюз5105135 0.0 10191136
15:00+12зсз6135295 0.0 10191447
18:00+8сз476298 0.0 1022160
21:00+3с348398 0.1 1024142
3 марта, ср
ср300:00+2с349599 0.5 1025160
03:00+1ссз2398100 1.3 1025168
06:00+1с2398100 2.0 1026137
09:000ссв4598100 1.3 1027244
12:00+1ссв3496100 2.1 1027278
15:00+2св3495100 0.3 1026339
18:00+2св3584100 0.3 1025402
21:00+1св3597100 0.1 1025227
4 марта, чт
чт400:00+1св2390100 0.2 102462
03:00+1зюз2294100 0.5 102345
06:00+2ююв2298100 1.7 102383
09:00+3ююв349794 0.1 1023145
12:00+6ююв348897 0.2 1021282
15:00+10юз23637 0.0 10191004
18:00+9в23715 0.0 101860
21:00+6юв44760 0.0 101660
5 марта, пт
пт500:00+5ююз356417 0.0 101471
03:00+6з132184100 0.3 10191165
06:00+2сз81480100 0.6 10271136
09:00+1юз4687100 0.1 1033566
12:00+2зюз3481100 0.3 1034577
15:00+4ссз115972 0.1 10331089
18:00+4ссв335859 0.1 1031828
21:00+2св35740 0.0 1029107
6 марта, сб
сб600:00+1св47720 0.0 1028137
03:00+1в23730 0.0 102534
06:000с11730 0.0 102322
09:00+3ссв116232 0.0 102165
12:00+8ссв224757 0.0 1017339
15:00+12всв3445100 0.0 1013521
18:00+9всв5854100 0.0 1013192
21:00+5в5759100 0.0 1015112